[[{"header":{"parameterUnit":"m.s-1","parameterCategory":1,"la1":30.2991,"la2":30.254,"lo1":-89.0895,"lo2":-89.0444,"dy":0.0017,"dx":0.0017,"nx":28,"ny":28,"refTime":"2023-08-24T09:00:00:Z","depth":0,"parameterNumber":2,"parameterNumberName":"U-component_of_WINDS"},"data":[0,0,0,0,0,0,0,0,0,0,0,0,0,0,0,0,0,0,0,0,0,0,0,0,0,0,0,0,0,0,0,0,0,0,0,0,0,0,0,0,0,0,0,0,0,0,0,0,0,0,0,0,0,0,0,0,0,0,2.3518,2.352,0,2.3708,2.371,2.3712,2.3771,2.377,2.377,2.3769,2.3962,2.3968,2.3974,0,0,0,0,0,0,0,0,0,0,0,0,0,2.3204,2.321,2.3518,2.352,2.3522,2.3708,2.371,2.3713,2.3771,2.377,2.3769,2.3768,2.396,2.3968,2.3975,0,0,0,0,0,0,0,0,0,0,0,0,0,2.3362,2.3211,2.3517,2.3574,2.3581,2.3707,2.371,2.3713,2.3772,2.377,2.3769,2.3768,2.3958,2.3967,2.3976,2.4059,0,0,2.4003,2.4007,0,0,0,0,0,0,0,0,2.3353,2.3373,2.3563,2.357,2.3578,2.3715,2.3671,2.3829,2.3772,2.3699,2.3769,2.3767,2.3881,2.3896,2.3935,2.4068,2.4076,2.4004,2.4009,2.4013,2.4016,0,0,0,0,0,0,0,2.3342,2.3365,2.3593,2.3566,2.3575,2.359,2.3611,2.3701,2.3795,2.3706,2.371,2.3732,2.3885,2.3926,2.394,2.4079,2.4004,2.4012,2.4017,2.4021,2.4288,2.429,0,0,0,0,0,0,2.3321,2.3356,2.3587,2.3599,2.346,2.3596,2.362,2.3672,2.3795,2.3812,2.3733,2.3734,2.3911,2.3929,2.3947,2.4051,2.4013,2.4022,2.4027,2.4287,2.4289,2.4291,0,0,0,0,0,0,2.3315,2.3342,2.3579,2.3479,2.351,2.3603,2.3662,2.3677,2.3718,2.3815,2.3832,2.3758,2.3911,2.3934,2.403,2.4059,2.4026,2.4034,2.4285,2.4287,2.429,2.4261,0,0,0,0,0,0,2.3305,2.3339,2.3371,2.3479,2.3515,2.366,2.3663,2.3681,2.3733,2.3737,2.3843,2.3859,2.3912,2.4016,2.4039,2.4071,2.4041,2.4282,2.4286,2.4289,2.4259,2.4262,2.4264,0,0,0,0,0,2.3294,2.3356,2.3373,2.34,2.3558,2.3661,2.3682,2.3741,2.3735,2.3769,2.3831,2.3856,2.4052,2.4026,2.4052,2.4086,2.4281,2.4285,2.4289,2.4258,2.4261,2.4264,0,0,0,0,0,0,2.3248,2.3371,2.3391,2.349,2.3564,2.3671,2.3715,2.3742,2.382,2.382,2.3889,2.3913,2.4004,2.4055,2.4023,2.4173,2.4168,2.4177,2.4136,2.4139,2.4141,2.4127,2.4049,0,0,0,0,0,2.325,2.3324,2.3427,2.3503,2.354,2.3621,2.3668,2.3707,2.3787,2.3819,2.3889,2.3965,2.4044,2.4095,2.4173,2.4267,2.4291,2.4304,2.4306,2.4308,2.4314,2.4367,2.4374,2.4303,2.4303,2.4303,0,0,2.3253,2.3329,2.3372,2.3496,2.3559,2.3633,2.3647,2.3725,2.3781,2.3831,2.3926,2.3979,2.407,2.4165,2.421,2.4211,2.4339,2.4313,2.4313,2.4319,2.4372,2.4379,2.4384,2.4306,2.4305,2.4305,0,0,2.3298,2.3363,2.3434,2.3497,2.3592,2.3645,2.3662,2.3764,2.3802,2.3898,2.3937,2.4004,2.4139,2.4202,2.4251,2.4319,2.4344,2.4342,2.4354,2.4404,2.441,2.4415,2.4439,2.4446,2.4349,2.4349,2.4349,0,2.329,2.3404,2.3467,2.3543,2.3596,2.3646,2.3717,2.3775,2.389,2.3925,2.3924,2.4094,2.4158,2.4268,2.4285,2.4324,2.4344,2.433,2.4404,2.441,2.4416,2.4439,2.4448,2.4348,2.4348,2.4348,2.4348,0,2.3389,2.3468,2.3514,2.3624,2.3683,2.3756,2.3829,2.3881,2.3915,2.3968,2.4065,2.4144,2.4239,2.4268,2.4302,2.4383,2.438,2.4391,2.4387,2.4421,2.4443,2.4453,2.4347,2.4347,2.4347,2.4348,0,0,2.3409,2.3554,2.3569,2.362,2.3728,2.379,2.3865,2.3958,2.4001,2.4079,2.4143,2.4256,2.4266,2.4322,2.4364,2.4409,2.4456,2.4414,2.4417,2.4418,2.4549,2.4539,2.4549,2.4474,2.4476,2.4478,2.4541,0,2.3467,2.3604,2.3663,2.3773,2.3846,2.3894,2.396,2.4033,2.4085,2.4154,2.4211,2.4289,2.4298,2.4332,2.4378,2.444,2.4483,2.4437,2.4534,2.4537,2.4509,2.4561,2.4551,2.4607,2.4551,2.4552,2.4553,0,2.3552,2.363,2.3748,2.3847,2.388,2.3938,2.4027,2.4093,2.4177,2.4212,2.4274,2.4313,2.4394,2.4385,2.4497,2.4464,2.4507,2.4544,2.4547,2.4558,2.4546,2.4571,2.4627,2.4635,2.4568,2.4567,2.4566,0,2.3553,2.3688,2.3776,2.3818,2.3936,2.3976,2.4027,2.411,2.4161,2.424,2.4274,2.436,2.4407,2.4473,2.4534,2.4523,2.464,2.4637,2.467,2.4668,2.4692,2.4689,2.4754,2.4721,2.4721,2.4721,2.4721,0,2.361,2.368,2.3778,2.3832,2.3911,2.3978,2.4055,2.4109,2.4182,2.4247,2.4294,2.4353,2.4432,2.4501,2.455,2.4634,2.4655,2.4685,2.4697,2.468,2.4676,2.4709,2.4706,2.4723,2.4723,2.4722,2.4722,0,2.3625,2.3694,2.3792,2.3896,2.3924,2.3978,2.4067,2.412,2.4175,2.4256,2.4279,2.4364,2.4448,2.4516,2.4626,2.4659,2.4747,2.4761,2.4718,2.4724,2.4754,2.4749,2.484,2.4855,2.4813,2.4814,2.4814,0,2.3656,2.3711,2.3821,2.3868,2.3918,2.3994,2.4047,2.4115,2.4168,2.4268,2.4309,2.4397,2.447,2.4602,2.4673,2.4758,2.4774,2.48,2.4787,2.4768,2.4773,2.4768,2.4774,2.48,2.4801,2.4801,2.4801,0,2.3704,2.3735,2.3811,2.3898,2.396,2.4032,2.4105,2.414,2.4221,2.4279,2.4365,2.4422,2.4535,2.4621,2.4713,2.4765,2.4796,2.4805,2.4817,2.48,2.4772,2.4786,2.4721,2.4802,2.4802,2.4802,2.4802,2.4802,2.3728,2.3778,2.3863,2.3945,2.4007,2.4074,2.413,2.4191,2.4265,2.4362,2.4397,2.4486,2.4568,2.4695,2.4748,2.4818,2.4821,2.4838,2.4843,2.4846,2.4843,2.4762,2.4835,2.4835,2.4835,2.4835,2.4835,0,2.3777,2.3834,2.3909,2.401,2.4074,2.4099,2.418,2.4232,2.431,2.4384,2.4456,2.4555,2.4639,2.4717,2.4804,2.4845,2.4861,2.4866,2.4863,2.4874,2.4836,2.4816,2.4851,2.4851,2.4851,2.4851,2.4851,2.4851,2.381,2.3897,2.3938,2.4056,2.4113,2.4201,2.4245,2.4307,2.4366,2.4475,2.4545,2.4595,2.4671,2.4765,2.4842,2.4863,2.4892,2.4893,2.4917,2.4879,2.4877,2.4874,2.4856,2.4899,2.4899,2.4949,2.495,2.495]},{"header":{"parameterUnit":"m.s-1","parameterCategory":1,"la1":30.2991,"la2":30.254,"lo1":-89.0895,"lo2":-89.0444,"dy":0.0017,"dx":0.0017,"nx":28,"ny":28,"refTime":"2023-08-24T09:00:00:Z","depth":0,"parameterNumber":3,"parameterNumberName":"V-component_of_WINDS"},"data":[0,0,0,0,0,0,0,0,0,0,0,0,0,0,0,0,0,0,0,0,0,0,0,0,0,0,0,0,0,0,0,0,0,0,0,0,0,0,0,0,0,0,0,0,0,0,0,0,0,0,0,0,0,0,0,0,0,0,4.2983,4.2983,0,4.2923,4.2922,4.2921,4.2848,4.2847,4.2846,4.2845,4.2779,4.2778,4.2778,0,0,0,0,0,0,0,0,0,0,0,0,0,4.3033,4.3032,4.2983,4.2982,4.2982,4.2923,4.2922,4.2921,4.2848,4.2847,4.2845,4.2844,4.2779,4.2778,4.2778,0,0,0,0,0,0,0,0,0,0,0,0,0,4.2996,4.3032,4.2983,4.2938,4.2934,4.2923,4.2922,4.2921,4.2849,4.2847,4.2845,4.2844,4.278,4.2779,4.2778,4.2805,0,0,4.2774,4.2774,0,0,0,0,0,0,0,0,4.2998,4.2994,4.2946,4.2941,4.2936,4.2891,4.2915,4.2882,4.2849,4.2881,4.2845,4.2843,4.2818,4.2813,4.2805,4.2802,4.2799,4.2774,4.2774,4.2773,4.2773,0,0,0,0,0,0,0,4.3,4.2996,4.2959,4.2945,4.2939,4.292,4.2913,4.2909,4.2859,4.2878,4.2872,4.2866,4.2815,4.2807,4.2803,4.2798,4.2774,4.2773,4.2773,4.2772,4.2814,4.2815,0,0,0,0,0,0,4.301,4.2999,4.2961,4.2957,4.2964,4.2921,4.2913,4.2907,4.2859,4.285,4.2868,4.2863,4.2809,4.2805,4.2801,4.2829,4.2773,4.2772,4.2772,4.2812,4.2814,4.2816,0,0,0,0,0,0,4.3012,4.3008,4.2963,4.2977,4.2969,4.2922,4.2916,4.2907,4.2899,4.2852,4.2842,4.2869,4.2808,4.2802,4.2805,4.2826,4.2772,4.2771,4.281,4.2813,4.2815,4.2887,0,0,0,0,0,0,4.3013,4.3009,4.3019,4.2977,4.2969,4.297,4.2918,4.2907,4.2898,4.2891,4.285,4.2842,4.2806,4.2807,4.2804,4.2824,4.277,4.2808,4.2811,4.2814,4.2883,4.2892,4.29,0,0,0,0,0,4.3015,4.3041,4.302,4.3016,4.2982,4.2971,4.2966,4.2925,4.29,4.291,4.2879,4.2843,4.2825,4.2808,4.2804,4.2824,4.2806,4.281,4.2814,4.2879,4.289,4.29,0,0,0,0,0,0,4.3085,4.3035,4.3011,4.3024,4.3003,4.2959,4.297,4.2939,4.2923,4.2917,4.2866,4.2858,4.2866,4.2845,4.2827,4.2848,4.281,4.2813,4.2861,4.2871,4.288,4.2884,4.2769,0,0,0,0,0,4.3103,4.3099,4.3055,4.3071,4.3062,4.3018,4.3012,4.2982,4.2957,4.2948,4.2917,4.2893,4.2882,4.2876,4.2863,4.288,4.2869,4.2892,4.29,4.2908,4.2911,4.2918,4.2927,4.2829,4.2829,4.2828,0,0,4.3138,4.311,4.311,4.3084,4.3064,4.3061,4.3011,4.3009,4.3006,4.2947,4.2947,4.2925,4.2895,4.2905,4.2907,4.2887,4.2936,4.2913,4.2919,4.2918,4.2923,4.2932,4.294,4.2831,4.2831,4.283,0,0,4.32,4.3179,4.319,4.3171,4.3142,4.3113,4.3115,4.3076,4.3059,4.306,4.3015,4.301,4.2992,4.2972,4.296,4.3016,4.2982,4.3013,4.3058,4.3065,4.3073,4.3079,4.3099,4.3106,4.3016,4.3017,4.3017,0,4.3247,4.3241,4.3199,4.3201,4.319,4.3138,4.3149,4.3132,4.3099,4.3093,4.3071,4.3048,4.3024,4.3028,4.3042,4.3034,4.3035,4.3017,4.3075,4.3082,4.3087,4.3105,4.3112,4.3021,4.302,4.302,4.3019,0,4.33,4.3297,4.3309,4.3281,4.3272,4.3278,4.3236,4.3231,4.3203,4.3176,4.3177,4.3147,4.3126,4.3125,4.3097,4.3126,4.3114,4.3085,4.3046,4.3101,4.3117,4.3123,4.3026,4.3025,4.3024,4.3023,0,0,4.3404,4.3353,4.3358,4.3344,4.3308,4.3304,4.3308,4.329,4.3287,4.3266,4.3267,4.3254,4.3226,4.3212,4.3182,4.3188,4.3234,4.3158,4.3156,4.3172,4.3263,4.3285,4.3294,4.3212,4.3213,4.3214,4.3265,0,4.3459,4.3463,4.3425,4.3439,4.3435,4.3386,4.3389,4.3367,4.3342,4.3334,4.3306,4.3297,4.3262,4.3253,4.3258,4.3228,4.3251,4.3223,4.3211,4.3211,4.3219,4.3302,4.3325,4.3375,4.3271,4.3272,4.3273,0,4.3523,4.3508,4.3522,4.3486,4.3483,4.3486,4.3466,4.346,4.3434,4.3415,4.34,4.3366,4.3365,4.333,4.3328,4.331,4.3302,4.3287,4.3288,4.3284,4.3245,4.33,4.339,4.3398,4.3282,4.3282,4.3281,0,4.3597,4.3579,4.3585,4.3575,4.3533,4.3537,4.352,4.3492,4.3483,4.3466,4.3459,4.3442,4.3432,4.3419,4.338,4.3357,4.3382,4.3343,4.3366,4.3367,4.3372,4.3372,4.3462,4.3369,4.3369,4.3369,4.3369,0,4.3662,4.3672,4.3618,4.3622,4.3631,4.3588,4.3599,4.3576,4.3552,4.3549,4.3506,4.3504,4.3453,4.3446,4.3415,4.3418,4.3414,4.3398,4.339,4.3402,4.3404,4.3395,4.339,4.3371,4.3371,4.337,4.337,0,4.3745,4.3709,4.3713,4.3673,4.3664,4.3673,4.3638,4.3639,4.3612,4.361,4.3607,4.3564,4.3552,4.3513,4.3491,4.3471,4.3483,4.3467,4.3492,4.3487,4.3511,4.3509,4.3598,4.3607,4.351,4.3511,4.3512,0,4.3788,4.3795,4.3757,4.3753,4.3738,4.3732,4.3723,4.3681,4.3674,4.3645,4.3649,4.3635,4.3621,4.3605,4.3571,4.3555,4.3538,4.357,4.3535,4.3547,4.3537,4.3537,4.3537,4.3577,4.3579,4.358,4.3581,0,4.3869,4.3851,4.3841,4.3825,4.3817,4.3802,4.3784,4.3783,4.3736,4.373,4.3719,4.3708,4.3687,4.3673,4.3652,4.3632,4.3598,4.3592,4.3596,4.3608,4.3622,4.3614,4.3512,4.359,4.3589,4.3588,4.3588,4.3588,4.3932,4.3936,4.391,4.3901,4.3884,4.3868,4.3868,4.3841,4.3832,4.3812,4.3788,4.378,4.3752,4.372,4.3703,4.3695,4.3677,4.3683,4.3684,4.3686,4.3692,4.3625,4.3691,4.3691,4.369,4.369,4.369,0,4.401,4.3991,4.3983,4.3961,4.3953,4.3924,4.3903,4.3898,4.3892,4.3871,4.3859,4.3846,4.3832,4.3798,4.378,4.3781,4.3765,4.3778,4.3776,4.3772,4.371,4.3708,4.3791,4.3791,4.3791,4.3791,4.3791,4.3791,4.405,4.4055,4.4034,4.403,4.401,4.4003,4.3994,4.3979,4.3962,4.395,4.3939,4.3917,4.389,4.3871,4.3857,4.3847,4.3842,4.386,4.3845,4.3787,4.3777,4.3768,4.3765,4.3859,4.386,4.3908,4.3908,4.3909]}]]